owner,sensor,date,latitude,longitude,vertical_datum,direction_of_sea_water_velocity,sea_water_speed,upward_sea_water_velocity,qcFlag 
TABS,ioos:station:wmo:42044:1,2016-07-01T00:00:00Z,26.1914,-97.0507,2.0,183.2188357,16.20557003,-99999.0,'11111222,11111222,99999999' 
TABS,ioos:station:wmo:42044:1,2016-07-01T00:30:00Z,26.1914,-97.0507,2.0,193.6731882,14.1716407,-99999.0,'11111222,11111222,99999999' 
TABS,ioos:station:wmo:42044:1,2016-07-01T01:00:00Z,26.1914,-97.0507,2.0,202.8107855,14.75392829,-99999.0,'11111222,11111222,99999999' 
TABS,ioos:station:wmo:42044:1,2016-07-01T01:30:00Z,26.1914,-97.0507,2.0,208.712838,13.36318824,-99999.0,'11111222,11111222,99999999' 
TABS,ioos:station:wmo:42044:1,2016-07-01T02:00:00Z,26.1914,-97.0507,2.0,226.080606,10.4953323,-99999.0,'11111222,11111222,99999999' 
TABS,ioos:station:wmo:42044:1,2016-07-01T02:30:00Z,26.1914,-97.0507,2.0,221.584142,17.44703127,-99999.0,'11111222,11111222,99999999' 
TABS,ioos:station:wmo:42044:1,2016-07-01T03:00:00Z,26.1914,-97.0507,2.0,232.0874417,14.842456,-99999.0,'11111222,11111222,99999999' 
TABS,ioos:station:wmo:42044:1,2016-07-01T03:30:00Z,26.1914,-97.0507,2.0,243.5231458,14.46737709,-99999.0,'11111222,11111222,99999999' 
TABS,ioos:station:wmo:42044:1,2016-07-01T04:00:00Z,26.1914,-97.0507,2.0,249.9715563,15.24174531,-99999.0,'11111222,11111222,99999999' 
TABS,ioos:station:wmo:42044:1,2016-07-01T04:30:00Z,26.1914,-97.0507,2.0,241.0976769,13.49023721,-99999.0,'11111222,11111222,99999999' 
TABS,ioos:station:wmo:42044:1,2016-07-01T05:00:00Z,26.1914,-97.0507,2.0,263.902376,12.23923609,-99999.0,'11111222,11111222,99999999' 
TABS,ioos:station:wmo:42044:1,2016-07-01T05:30:00Z,26.1914,-97.0507,2.0,274.0860281,11.78996183,-99999.0,'11111222,11111222,99999999' 
TABS,ioos:station:wmo:42044:1,2016-07-01T06:00:00Z,26.1914,-97.0507,2.0,281.2284259,9.60381695,-99999.0,'11133222,11111222,99999999' 
TABS,ioos:station:wmo:42044:1,2016-07-01T06:30:00Z,26.1914,-97.0507,2.0,292.5957417,12.59692423,-99999.0,'11111222,11111222,99999999' 
TABS,ioos:station:wmo:42044:1,2016-07-01T07:00:00Z,26.1914,-97.0507,2.0,301.6882619,11.6696958,-99999.0,'11111222,11111222,99999999' 
TABS,ioos:station:wmo:42044:1,2016-07-01T07:30:00Z,26.1914,-97.0507,2.0,319.4329738,10.9788524,-99999.0,'11111222,11111222,99999999' 
TABS,ioos:station:wmo:42044:1,2016-07-01T08:00:00Z,26.1914,-97.0507,2.0,318.6580738,12.41379877,-99999.0,'11111222,11111222,99999999' 
TABS,ioos:station:wmo:42044:1,2016-07-01T08:30:00Z,26.1914,-97.0507,2.0,322.4906664,7.70248012,-99999.0,'11133222,11111222,99999999' 
TABS,ioos:station:wmo:42044:1,2016-07-01T09:00:00Z,26.1914,-97.0507,2.0,337.0208608,6.864750542,-99999.0,'11133222,11111222,99999999' 
TABS,ioos:station:wmo:42044:1,2016-07-01T09:30:00Z,26.1914,-97.0507,2.0,334.3860992,5.389666038,-99999.0,'11133222,11111222,99999999' 
TABS,ioos:station:wmo:42044:1,2016-07-01T10:00:00Z,26.1914,-97.0507,2.0,5.108515507,6.626318737,-99999.0,'11133222,11111222,99999999' 
TABS,ioos:station:wmo:42044:1,2016-07-01T10:30:00Z,26.1914,-97.0507,2.0,14.23855372,7.562307849,-99999.0,'11133222,11111222,99999999' 
TABS,ioos:station:wmo:42044:1,2016-07-01T11:00:00Z,26.1914,-97.0507,2.0,2.566365281,3.573583636,-99999.0,'11133222,11111222,99999999' 
TABS,ioos:station:wmo:42044:1,2016-07-01T11:30:00Z,26.1914,-97.0507,2.0,37.78852786,13.34971535,-99999.0,'11111222,11111222,99999999' 
TABS,ioos:station:wmo:42044:1,2016-07-01T12:00:00Z,26.1914,-97.0507,2.0,54.61667431,12.95235886,-99999.0,'11111222,11111222,99999999' 
TABS,ioos:station:wmo:42044:1,2016-07-01T12:30:00Z,26.1914,-97.0507,2.0,62.1160435,15.73714396,-99999.0,'11111222,11111222,99999999' 
TABS,ioos:station:wmo:42044:1,2016-07-01T13:00:00Z,26.1914,-97.0507,2.0,54.42478506,14.16361536,-99999.0,'11111222,11111222,99999999' 
TABS,ioos:station:wmo:42044:1,2016-07-01T13:30:00Z,26.1914,-97.0507,2.0,68.96820539,14.51711404,-99999.0,'11111222,11111222,99999999' 
TABS,ioos:station:wmo:42044:1,2016-07-01T14:00:00Z,26.1914,-97.0507,2.0,71.38697368,15.25806344,-99999.0,'11111222,11111222,99999999' 
TABS,ioos:station:wmo:42044:1,2016-07-01T14:30:00Z,26.1914,-97.0507,2.0,76.41279094,14.85576319,-99999.0,'11111222,11111222,99999999' 
TABS,ioos:station:wmo:42044:1,2016-07-01T15:00:00Z,26.1914,-97.0507,2.0,80.73769517,14.60036301,-99999.0,'11111222,11111222,99999999' 
TABS,ioos:station:wmo:42044:1,2016-07-01T15:30:00Z,26.1914,-97.0507,2.0,80.09268125,14.18148441,-99999.0,'11111222,11111222,99999999' 
TABS,ioos:station:wmo:42044:1,2016-07-01T16:00:00Z,26.1914,-97.0507,2.0,77.63891568,11.11773358,-99999.0,'11111222,11111222,99999999' 
TABS,ioos:station:wmo:42044:1,2016-07-01T16:30:00Z,26.1914,-97.0507,2.0,76.3743489,12.8619944,-99999.0,'11111222,11111222,99999999' 
TABS,ioos:station:wmo:42044:1,2016-07-01T17:00:00Z,26.1914,-97.0507,2.0,77.76702461,13.02576293,-99999.0,'11111222,11111222,99999999' 
TABS,ioos:station:wmo:42044:1,2016-07-01T17:30:00Z,26.1914,-97.0507,2.0,91.25856551,13.20318522,-99999.0,'11111222,11111222,99999999' 
TABS,ioos:station:wmo:42044:1,2016-07-01T18:00:00Z,26.1914,-97.0507,2.0,85.8828299,9.053364016,-99999.0,'11133222,11111222,99999999' 
TABS,ioos:station:wmo:42044:1,2016-07-01T18:30:00Z,26.1914,-97.0507,2.0,94.90064658,10.41808524,-99999.0,'11111222,11111222,99999999' 
TABS,ioos:station:wmo:42044:1,2016-07-01T19:00:00Z,26.1914,-97.0507,2.0,109.0477586,10.93894419,-99999.0,'11111222,11111222,99999999' 
TABS,ioos:station:wmo:42044:1,2016-07-01T19:30:00Z,26.1914,-97.0507,2.0,109.7253827,6.459009212,-99999.0,'11133222,11111222,99999999' 
TABS,ioos:station:wmo:42044:1,2016-07-01T20:00:00Z,26.1914,-97.0507,2.0,115.0961918,3.489412558,-99999.0,'11133222,11111222,99999999' 
TABS,ioos:station:wmo:42044:1,2016-07-01T20:30:00Z,26.1914,-97.0507,2.0,113.2622973,5.899601681,-99999.0,'11133222,11111222,99999999' 
TABS,ioos:station:wmo:42044:1,2016-07-01T21:00:00Z,26.1914,-97.0507,2.0,118.3285057,6.97536379,-99999.0,'11133222,11111222,99999999' 
TABS,ioos:station:wmo:42044:1,2016-07-01T21:30:00Z,26.1914,-97.0507,2.0,111.9823868,3.526372073,-99999.0,'11133222,11111222,99999999' 
TABS,ioos:station:wmo:42044:1,2016-07-01T22:00:00Z,26.1914,-97.0507,2.0,126.7745305,3.608004989,-99999.0,'11133222,11111222,99999999' 
TABS,ioos:station:wmo:42044:1,2016-07-01T22:30:00Z,26.1914,-97.0507,2.0,135.4868149,4.992354154,-99999.0,'11133222,11111222,99999999' 
TABS,ioos:station:wmo:42044:1,2016-07-01T23:00:00Z,26.1914,-97.0507,2.0,196.6989947,0.939627586,-99999.0,'11133222,11111222,99999999' 
TABS,ioos:station:wmo:42044:1,2016-07-01T23:30:00Z,26.1914,-97.0507,2.0,294.3533731,2.085569467,-99999.0,'11133222,11111222,99999999' 
TABS,ioos:station:wmo:42044:1,2016-07-02T00:00:00Z,26.1914,-97.0507,2.0,233.506482,3.346072324,-99999.0,'11133222,11111222,99999999' 
TABS,ioos:station:wmo:42044:1,2016-07-02T00:30:00Z,26.1914,-97.0507,2.0,279.8196986,4.221847937,-99999.0,'11133222,11111222,99999999' 
TABS,ioos:station:wmo:42044:1,2016-07-02T01:00:00Z,26.1914,-97.0507,2.0,300.6718975,4.371555787,-99999.0,'11133222,11111222,99999999' 
TABS,ioos:station:wmo:42044:1,2016-07-02T01:30:00Z,26.1914,-97.0507,2.0,287.7286799,6.666588333,-99999.0,'11133222,11111222,99999999' 
TABS,ioos:station:wmo:42044:1,2016-07-02T02:00:00Z,26.1914,-97.0507,2.0,308.2024491,10.75290658,-99999.0,'11111222,11111222,99999999' 
TABS,ioos:station:wmo:42044:1,2016-07-02T02:30:00Z,26.1914,-97.0507,2.0,293.2651758,9.089037353,-99999.0,'11133222,11111222,99999999' 
TABS,ioos:station:wmo:42044:1,2016-07-02T03:00:00Z,26.1914,-97.0507,2.0,290.0571454,12.6257079,-99999.0,'11111222,11111222,99999999' 
TABS,ioos:station:wmo:42044:1,2016-07-02T03:30:00Z,26.1914,-97.0507,2.0,290.5199743,11.04049365,-99999.0,'11111222,11111222,99999999' 
TABS,ioos:station:wmo:42044:1,2016-07-02T04:00:00Z,26.1914,-97.0507,2.0,296.38839,13.02739421,-99999.0,'11111222,11111222,99999999' 
TABS,ioos:station:wmo:42044:1,2016-07-02T04:30:00Z,26.1914,-97.0507,2.0,305.5469583,14.89597261,-99999.0,'11111222,11111222,99999999' 
TABS,ioos:station:wmo:42044:1,2016-07-02T05:00:00Z,26.1914,-97.0507,2.0,317.0755323,15.03588042,-99999.0,'11111222,11111222,99999999' 
TABS,ioos:station:wmo:42044:1,2016-07-02T05:30:00Z,26.1914,-97.0507,2.0,325.4138583,16.66523327,-99999.0,'11111222,11111222,99999999' 
TABS,ioos:station:wmo:42044:1,2016-07-02T06:00:00Z,26.1914,-97.0507,2.0,334.6778131,16.08558361,-99999.0,'11111222,11111222,99999999' 
TABS,ioos:station:wmo:42044:1,2016-07-02T06:30:00Z,26.1914,-97.0507,2.0,349.4526241,17.09891809,-99999.0,'11111222,11111222,99999999' 
TABS,ioos:station:wmo:42044:1,2016-07-02T07:00:00Z,26.1914,-97.0507,2.0,350.6106267,19.43033196,-99999.0,'11111222,11111222,99999999' 
TABS,ioos:station:wmo:42044:1,2016-07-02T07:30:00Z,26.1914,-97.0507,2.0,351.7791871,24.05721721,-99999.0,'11111222,11111222,99999999' 
TABS,ioos:station:wmo:42044:1,2016-07-02T08:00:00Z,26.1914,-97.0507,2.0,0.578934671,27.72141411,-99999.0,'11111222,11111222,99999999' 
TABS,ioos:station:wmo:42044:1,2016-07-02T08:30:00Z,26.1914,-97.0507,2.0,8.233694693,28.21077808,-99999.0,'11111222,11111222,99999999' 
TABS,ioos:station:wmo:42044:1,2016-07-02T09:00:00Z,26.1914,-97.0507,2.0,15.14746427,28.89385056,-99999.0,'11111222,11111222,99999999' 
TABS,ioos:station:wmo:42044:1,2016-07-02T09:30:00Z,26.1914,-97.0507,2.0,16.91252573,29.87193499,-99999.0,'11111222,11111222,99999999' 
TABS,ioos:station:wmo:42044:1,2016-07-02T10:00:00Z,26.1914,-97.0507,2.0,16.07169447,31.82377256,-99999.0,'11111222,11111222,99999999' 
TABS,ioos:station:wmo:42044:1,2016-07-02T10:30:00Z,26.1914,-97.0507,2.0,19.36396025,30.43143441,-99999.0,'11111222,11111222,99999999' 
TABS,ioos:station:wmo:42044:1,2016-07-02T11:00:00Z,26.1914,-97.0507,2.0,23.12271463,6.926420432,-99999.0,'11133222,11111222,99999999' 
TABS,ioos:station:wmo:42044:1,2016-07-02T11:30:00Z,26.1914,-97.0507,2.0,28.50501087,31.17971135,-99999.0,'11111222,11111222,99999999' 
TABS,ioos:station:wmo:42044:1,2016-07-02T12:00:00Z,26.1914,-97.0507,2.0,25.32978204,28.00208028,-99999.0,'11111222,11111222,99999999' 
TABS,ioos:station:wmo:42044:1,2016-07-02T12:30:00Z,26.1914,-97.0507,2.0,33.34213312,29.219372,-99999.0,'11111222,11111222,99999999' 
TABS,ioos:station:wmo:42044:1,2016-07-02T13:00:00Z,26.1914,-97.0507,2.0,33.75964142,27.46045338,-99999.0,'11111222,11111222,99999999' 
TABS,ioos:station:wmo:42044:1,2016-07-02T13:30:00Z,26.1914,-97.0507,2.0,40.15720906,25.04320467,-99999.0,'11111222,11111222,99999999' 
TABS,ioos:station:wmo:42044:1,2016-07-02T14:00:00Z,26.1914,-97.0507,2.0,36.1322102,24.54003464,-99999.0,'11111222,11111222,99999999' 
TABS,ioos:station:wmo:42044:1,2016-07-02T14:30:00Z,26.1914,-97.0507,2.0,39.9396087,23.0070098,-99999.0,'11111222,11111222,99999999' 
TABS,ioos:station:wmo:42044:1,2016-07-02T15:00:00Z,26.1914,-97.0507,2.0,41.11365855,21.59520549,-99999.0,'11111222,11111222,99999999' 
TABS,ioos:station:wmo:42044:1,2016-07-02T15:30:00Z,26.1914,-97.0507,2.0,39.74427144,22.69455001,-99999.0,'11111222,11111222,99999999' 
TABS,ioos:station:wmo:42044:1,2016-07-02T16:00:00Z,26.1914,-97.0507,2.0,35.81426781,19.7553537,-99999.0,'11111222,11111222,99999999' 
TABS,ioos:station:wmo:42044:1,2016-07-02T16:30:00Z,26.1914,-97.0507,2.0,35.19157188,20.00658392,-99999.0,'11111222,11111222,99999999' 
TABS,ioos:station:wmo:42044:1,2016-07-02T17:00:00Z,26.1914,-97.0507,2.0,35.14141699,22.01201717,-99999.0,'11111222,11111222,99999999' 
TABS,ioos:station:wmo:42044:1,2016-07-02T17:30:00Z,26.1914,-97.0507,2.0,25.43221221,21.26021872,-99999.0,'11111222,11111222,99999999' 
TABS,ioos:station:wmo:42044:1,2016-07-02T18:00:00Z,26.1914,-97.0507,2.0,24.70943606,21.26721656,-99999.0,'11111222,11111222,99999999' 
TABS,ioos:station:wmo:42044:1,2016-07-02T18:30:00Z,26.1914,-97.0507,2.0,30.24952206,23.38393466,-99999.0,'11111222,11111222,99999999' 
TABS,ioos:station:wmo:42044:1,2016-07-02T19:00:00Z,26.1914,-97.0507,2.0,31.39040516,22.11707033,-99999.0,'11111222,11111222,99999999' 
TABS,ioos:station:wmo:42044:1,2016-07-02T19:30:00Z,26.1914,-97.0507,2.0,32.09780548,21.0590052,-99999.0,'11111222,11111222,99999999' 
TABS,ioos:station:wmo:42044:1,2016-07-02T20:00:00Z,26.1914,-97.0507,2.0,25.90066759,19.66530447,-99999.0,'11111222,11111222,99999999' 
TABS,ioos:station:wmo:42044:1,2016-07-02T20:30:00Z,26.1914,-97.0507,2.0,21.88925579,20.62706232,-99999.0,'11111222,11111222,99999999' 
TABS,ioos:station:wmo:42044:1,2016-07-02T21:00:00Z,26.1914,-97.0507,2.0,15.75854735,17.67427792,-99999.0,'11111222,11111222,99999999' 
TABS,ioos:station:wmo:42044:1,2016-07-02T21:30:00Z,26.1914,-97.0507,2.0,19.95279827,17.67068193,-99999.0,'11111222,11111222,99999999' 
TABS,ioos:station:wmo:42044:1,2016-07-02T22:00:00Z,26.1914,-97.0507,2.0,16.1453284,17.72923574,-99999.0,'11111222,11111222,99999999' 
TABS,ioos:station:wmo:42044:1,2016-07-02T22:30:00Z,26.1914,-97.0507,2.0,6.747130538,13.53372454,-99999.0,'11111222,11111222,99999999' 
TABS,ioos:station:wmo:42044:1,2016-07-02T23:00:00Z,26.1914,-97.0507,2.0,9.13475926,18.39325963,-99999.0,'11111222,11111222,99999999' 
TABS,ioos:station:wmo:42044:1,2016-07-02T23:30:00Z,26.1914,-97.0507,2.0,0.414926708,17.96047048,-99999.0,'11111222,11111222,99999999' 
TABS,ioos:station:wmo:42044:1,2016-07-03T00:00:00Z,26.1914,-97.0507,2.0,345.2789315,17.03934564,-99999.0,'11111222,11111222,99999999' 
TABS,ioos:station:wmo:42044:1,2016-07-03T00:30:00Z,26.1914,-97.0507,2.0,343.4273997,16.9334521,-99999.0,'11111222,11111222,99999999' 
TABS,ioos:station:wmo:42044:1,2016-07-03T01:00:00Z,26.1914,-97.0507,2.0,333.9397859,14.72731476,-99999.0,'11111222,11111222,99999999' 
TABS,ioos:station:wmo:42044:1,2016-07-03T01:30:00Z,26.1914,-97.0507,2.0,339.7991724,11.90214266,-99999.0,'11111222,11111222,99999999' 
TABS,ioos:station:wmo:42044:1,2016-07-03T02:00:00Z,26.1914,-97.0507,2.0,336.1224005,19.9363437,-99999.0,'11111222,11111222,99999999' 
TABS,ioos:station:wmo:42044:1,2016-07-03T02:30:00Z,26.1914,-97.0507,2.0,328.9565697,29.49435539,-99999.0,'11111222,11111222,99999999' 
TABS,ioos:station:wmo:42044:1,2016-07-03T03:00:00Z,26.1914,-97.0507,2.0,339.1802396,25.91201459,-99999.0,'11111222,11111222,99999999' 
TABS,ioos:station:wmo:42044:1,2016-07-03T03:30:00Z,26.1914,-97.0507,2.0,346.6691266,28.97064894,-99999.0,'11111222,11111222,99999999' 
TABS,ioos:station:wmo:42044:1,2016-07-03T04:00:00Z,26.1914,-97.0507,2.0,348.8757021,29.69802182,-99999.0,'11111222,11111222,99999999' 
TABS,ioos:station:wmo:42044:1,2016-07-03T04:30:00Z,26.1914,-97.0507,2.0,341.5117073,33.80476298,-99999.0,'11111222,11111222,99999999' 
TABS,ioos:station:wmo:42044:1,2016-07-03T05:00:00Z,26.1914,-97.0507,2.0,341.3781804,35.82563468,-99999.0,'11111222,11111222,99999999' 
TABS,ioos:station:wmo:42044:1,2016-07-03T05:30:00Z,26.1914,-97.0507,2.0,349.236384,35.39272524,-99999.0,'11111222,11111222,99999999' 
TABS,ioos:station:wmo:42044:1,2016-07-03T06:00:00Z,26.1914,-97.0507,2.0,346.9592954,33.37066077,-99999.0,'11111222,11111222,99999999' 
TABS,ioos:station:wmo:42044:1,2016-07-03T06:30:00Z,26.1914,-97.0507,2.0,350.4723515,33.04586207,-99999.0,'11111222,11111222,99999999' 
TABS,ioos:station:wmo:42044:1,2016-07-03T07:00:00Z,26.1914,-97.0507,2.0,351.0734165,36.41103404,-99999.0,'11111222,11111222,99999999' 
TABS,ioos:station:wmo:42044:1,2016-07-03T07:30:00Z,26.1914,-97.0507,2.0,350.4452763,33.55552116,-99999.0,'11111222,11111222,99999999' 
TABS,ioos:station:wmo:42044:1,2016-07-03T08:00:00Z,26.1914,-97.0507,2.0,353.8942035,36.47694203,-99999.0,'11111222,11111222,99999999' 
TABS,ioos:station:wmo:42044:1,2016-07-03T08:30:00Z,26.1914,-97.0507,2.0,0.597191239,34.55187549,-99999.0,'11111222,11111222,99999999' 
TABS,ioos:station:wmo:42044:1,2016-07-03T09:00:00Z,26.1914,-97.0507,2.0,2.004739803,34.02081863,-99999.0,'11111222,11111222,99999999' 
TABS,ioos:station:wmo:42044:1,2016-07-03T09:30:00Z,26.1914,-97.0507,2.0,2.378481423,34.21947545,-99999.0,'11111222,11111222,99999999' 
TABS,ioos:station:wmo:42044:1,2016-07-03T10:00:00Z,26.1914,-97.0507,2.0,3.968506858,34.10175949,-99999.0,'11111222,11111222,99999999' 
TABS,ioos:station:wmo:42044:1,2016-07-03T10:30:00Z,26.1914,-97.0507,2.0,14.07329978,30.14475908,-99999.0,'11111222,11111222,99999999' 
TABS,ioos:station:wmo:42044:1,2016-07-03T11:00:00Z,26.1914,-97.0507,2.0,21.49644711,12.55318286,-99999.0,'11111222,11111222,99999999' 
TABS,ioos:station:wmo:42044:1,2016-07-03T11:30:00Z,26.1914,-97.0507,2.0,13.33070553,34.26318141,-99999.0,'11111222,11111222,99999999' 
TABS,ioos:station:wmo:42044:1,2016-07-03T12:00:00Z,26.1914,-97.0507,2.0,12.46033025,30.77486149,-99999.0,'11111222,11111222,99999999' 
TABS,ioos:station:wmo:42044:1,2016-07-03T12:30:00Z,26.1914,-97.0507,2.0,10.75946591,29.99734822,-99999.0,'11111222,11111222,99999999' 
TABS,ioos:station:wmo:42044:1,2016-07-03T13:00:00Z,26.1914,-97.0507,2.0,15.34666323,29.69897641,-99999.0,'11111222,11111222,99999999' 
TABS,ioos:station:wmo:42044:1,2016-07-03T13:30:00Z,26.1914,-97.0507,2.0,13.01016474,30.7390452,-99999.0,'11111222,11111222,99999999' 
TABS,ioos:station:wmo:42044:1,2016-07-03T14:00:00Z,26.1914,-97.0507,2.0,11.05071967,28.59010318,-99999.0,'11111222,11111222,99999999' 
TABS,ioos:station:wmo:42044:1,2016-07-03T14:30:00Z,26.1914,-97.0507,2.0,12.92682336,28.4305065,-99999.0,'11111222,11111222,99999999' 
TABS,ioos:station:wmo:42044:1,2016-07-03T15:00:00Z,26.1914,-97.0507,2.0,16.80652881,22.03100089,-99999.0,'11111222,11111222,99999999' 
TABS,ioos:station:wmo:42044:1,2016-07-03T15:30:00Z,26.1914,-97.0507,2.0,14.31241521,23.66447549,-99999.0,'11111222,11111222,99999999' 
TABS,ioos:station:wmo:42044:1,2016-07-03T16:00:00Z,26.1914,-97.0507,2.0,13.73280899,23.80035504,-99999.0,'11111222,11111222,99999999' 
TABS,ioos:station:wmo:42044:1,2016-07-03T16:30:00Z,26.1914,-97.0507,2.0,8.891001858,24.39309124,-99999.0,'11111222,11111222,99999999' 
TABS,ioos:station:wmo:42044:1,2016-07-03T17:00:00Z,26.1914,-97.0507,2.0,11.05780702,21.376866,-99999.0,'11111222,11111222,99999999' 
TABS,ioos:station:wmo:42044:1,2016-07-03T17:30:00Z,26.1914,-97.0507,2.0,9.587560361,24.85718608,-99999.0,'11111222,11111222,99999999' 
TABS,ioos:station:wmo:42044:1,2016-07-03T18:00:00Z,26.1914,-97.0507,2.0,6.650592259,25.90430273,-99999.0,'11111222,11111222,99999999' 
TABS,ioos:station:wmo:42044:1,2016-07-03T18:30:00Z,26.1914,-97.0507,2.0,13.42122808,24.17006827,-99999.0,'11111222,11111222,99999999' 
TABS,ioos:station:wmo:42044:1,2016-07-03T19:00:00Z,26.1914,-97.0507,2.0,9.337181569,23.29868022,-99999.0,'11111222,11111222,99999999' 
TABS,ioos:station:wmo:42044:1,2016-07-03T19:30:00Z,26.1914,-97.0507,2.0,14.91581227,23.38803968,-99999.0,'11111222,11111222,99999999' 
TABS,ioos:station:wmo:42044:1,2016-07-03T20:00:00Z,26.1914,-97.0507,2.0,15.16156882,23.59113817,-99999.0,'11111222,11111222,99999999' 
TABS,ioos:station:wmo:42044:1,2016-07-03T20:30:00Z,26.1914,-97.0507,2.0,13.37871937,22.81925503,-99999.0,'11111222,11111222,99999999' 
TABS,ioos:station:wmo:42044:1,2016-07-03T21:00:00Z,26.1914,-97.0507,2.0,13.51814077,23.05880526,-99999.0,'11111222,11111222,99999999' 
TABS,ioos:station:wmo:42044:1,2016-07-03T21:30:00Z,26.1914,-97.0507,2.0,15.60562804,26.39292329,-99999.0,'11111222,11111222,99999999' 
TABS,ioos:station:wmo:42044:1,2016-07-03T22:00:00Z,26.1914,-97.0507,2.0,17.14051968,23.51437433,-99999.0,'11111222,11111222,99999999' 
TABS,ioos:station:wmo:42044:1,2016-07-03T22:30:00Z,26.1914,-97.0507,2.0,17.75448713,22.62769321,-99999.0,'11111222,11111222,99999999' 
TABS,ioos:station:wmo:42044:1,2016-07-03T23:00:00Z,26.1914,-97.0507,2.0,7.961605553,23.53685833,-99999.0,'11111222,11111222,99999999' 
TABS,ioos:station:wmo:42044:1,2016-07-03T23:30:00Z,26.1914,-97.0507,2.0,8.567708412,23.89666295,-99999.0,'11111222,11111222,99999999' 
TABS,ioos:station:wmo:42044:1,2016-07-04T00:00:00Z,26.1914,-97.0507,2.0,5.819482377,23.07893412,-99999.0,'11111222,11111222,99999999' 
TABS,ioos:station:wmo:42044:1,2016-07-04T00:30:00Z,26.1914,-97.0507,2.0,13.04704388,22.19289301,-99999.0,'11111222,11111222,99999999' 
TABS,ioos:station:wmo:42044:1,2016-07-04T01:00:00Z,26.1914,-97.0507,2.0,13.15260227,21.22681794,-99999.0,'11111222,11111222,99999999' 
TABS,ioos:station:wmo:42044:1,2016-07-04T01:30:00Z,26.1914,-97.0507,2.0,16.6407752,14.03790939,-99999.0,'11111222,11111222,99999999' 
TABS,ioos:station:wmo:42044:1,2016-07-04T02:00:00Z,26.1914,-97.0507,2.0,3.917741582,22.10164247,-99999.0,'11111222,11111222,99999999' 
TABS,ioos:station:wmo:42044:1,2016-07-04T02:30:00Z,26.1914,-97.0507,2.0,5.493840172,24.96466703,-99999.0,'11111222,11111222,99999999' 
TABS,ioos:station:wmo:42044:1,2016-07-04T03:00:00Z,26.1914,-97.0507,2.0,1.46209062,25.47829272,-99999.0,'11111222,11111222,99999999' 
TABS,ioos:station:wmo:42044:1,2016-07-04T03:30:00Z,26.1914,-97.0507,2.0,1.77069007,23.9514342,-99999.0,'11111222,11111222,99999999' 
TABS,ioos:station:wmo:42044:1,2016-07-04T04:00:00Z,26.1914,-97.0507,2.0,356.5836303,24.16294684,-99999.0,'11111222,11111222,99999999' 
TABS,ioos:station:wmo:42044:1,2016-07-04T04:30:00Z,26.1914,-97.0507,2.0,356.1069562,26.95219843,-99999.0,'11111222,11111222,99999999' 
TABS,ioos:station:wmo:42044:1,2016-07-04T05:00:00Z,26.1914,-97.0507,2.0,354.0853727,27.07413895,-99999.0,'11111222,11111222,99999999' 
TABS,ioos:station:wmo:42044:1,2016-07-04T05:30:00Z,26.1914,-97.0507,2.0,4.238906933,27.46512334,-99999.0,'11111222,11111222,99999999' 
TABS,ioos:station:wmo:42044:1,2016-07-04T06:00:00Z,26.1914,-97.0507,2.0,352.8696451,25.53751163,-99999.0,'11111222,11111222,99999999' 
TABS,ioos:station:wmo:42044:1,2016-07-04T06:30:00Z,26.1914,-97.0507,2.0,354.8671293,25.37175201,-99999.0,'11111222,11111222,99999999' 
TABS,ioos:station:wmo:42044:1,2016-07-04T07:00:00Z,26.1914,-97.0507,2.0,352.146061,22.90486848,-99999.0,'11111222,11111222,99999999' 
TABS,ioos:station:wmo:42044:1,2016-07-04T07:30:00Z,26.1914,-97.0507,2.0,356.4536761,22.79365263,-99999.0,'11111222,11111222,99999999' 
TABS,ioos:station:wmo:42044:1,2016-07-04T08:00:00Z,26.1914,-97.0507,2.0,358.5444718,23.61762266,-99999.0,'11111222,11111222,99999999' 
TABS,ioos:station:wmo:42044:1,2016-07-04T08:30:00Z,26.1914,-97.0507,2.0,359.6652919,23.95040918,-99999.0,'11111222,11144222,99999999' 
TABS,ioos:station:wmo:42044:1,2016-07-04T09:00:00Z,26.1914,-97.0507,2.0,359.0808491,23.68304879,-99999.0,'11111222,11144222,99999999' 
TABS,ioos:station:wmo:42044:1,2016-07-04T09:30:00Z,26.1914,-97.0507,2.0,8.618712763,23.8897635,-99999.0,'11111222,11111222,99999999' 
TABS,ioos:station:wmo:42044:1,2016-07-04T10:00:00Z,26.1914,-97.0507,2.0,8.976594574,23.64964482,-99999.0,'11111222,11111222,99999999' 
TABS,ioos:station:wmo:42044:1,2016-07-04T10:30:00Z,26.1914,-97.0507,2.0,5.088272377,20.9726417,-99999.0,'11111222,11111222,99999999' 
TABS,ioos:station:wmo:42044:1,2016-07-04T11:00:00Z,26.1914,-97.0507,2.0,356.8753213,15.04236684,-99999.0,'11111222,11111222,99999999' 
TABS,ioos:station:wmo:42044:1,2016-07-04T11:30:00Z,26.1914,-97.0507,2.0,356.584464,20.47637663,-99999.0,'11111222,11111222,99999999' 
TABS,ioos:station:wmo:42044:1,2016-07-04T12:00:00Z,26.1914,-97.0507,2.0,6.815745934,20.8976769,-99999.0,'11111222,11111222,99999999' 
TABS,ioos:station:wmo:42044:1,2016-07-04T12:30:00Z,26.1914,-97.0507,2.0,6.014915931,20.99558049,-99999.0,'11111222,11111222,99999999' 
TABS,ioos:station:wmo:42044:1,2016-07-04T13:00:00Z,26.1914,-97.0507,2.0,5.010157221,22.21487115,-99999.0,'11111222,11111222,99999999' 
TABS,ioos:station:wmo:42044:1,2016-07-04T13:30:00Z,26.1914,-97.0507,2.0,2.237978145,22.53718705,-99999.0,'11111222,11111222,99999999' 
TABS,ioos:station:wmo:42044:1,2016-07-04T14:00:00Z,26.1914,-97.0507,2.0,8.282023614,20.82719616,-99999.0,'11111222,11111222,99999999' 
TABS,ioos:station:wmo:42044:1,2016-07-04T14:30:00Z,26.1914,-97.0507,2.0,2.858820682,22.65819499,-99999.0,'11111222,11111222,99999999' 
TABS,ioos:station:wmo:42044:1,2016-07-04T15:00:00Z,26.1914,-97.0507,2.0,5.517018868,20.59539754,-99999.0,'11111222,11111222,99999999' 
TABS,ioos:station:wmo:42044:1,2016-07-04T15:30:00Z,26.1914,-97.0507,2.0,1.211243177,21.76486159,-99999.0,'11111222,11111222,99999999' 
TABS,ioos:station:wmo:42044:1,2016-07-04T16:00:00Z,26.1914,-97.0507,2.0,5.330477599,20.2375122,-99999.0,'11111222,11111222,99999999' 